Time,TemperatureF,DewpointF,PressureIn,WindDirection,WindDirectionDegrees,WindSpeedMPH,WindSpeedGustMPH,Humidity,HourlyPrecipIn,Conditions,Clouds,dailyrainin,SolarRadiationWatts/m^2,SoftwareType,DateUTC
2013-04-30 01:21:00,58.0,41.0,-100.00,SSE,160,16.0,21.0,53,-99.99,,,0.00,0.000000,,2013-04-30 06:21:00,
2013-04-30 01:32:00,58.0,41.0,-100.00,SSE,160,16.0,21.0,53,-99.99,,,0.00,0.000000,,2013-04-30 06:32:00,
2013-04-30 01:41:00,58.0,41.0,-100.00,SSE,160,16.0,21.0,53,-99.99,,,0.00,0.000000,,2013-04-30 06:41:00,
2013-04-30 01:52:00,58.0,41.0,-100.00,SSE,160,16.0,21.0,53,-99.99,,,0.00,0.000000,,2013-04-30 06:52:00,
2013-04-30 02:21:00,56.0,41.0,-100.00,South,170,15.0,22.0,58,0.00,,,0.00,0.000000,,2013-04-30 07:21:00,
2013-04-30 02:31:00,56.0,41.0,-100.00,South,170,15.0,22.0,58,0.00,,,0.00,0.000000,,2013-04-30 07:31:00,
2013-04-30 02:42:00,56.0,41.0,-100.00,South,170,15.0,22.0,58,0.00,,,0.00,0.000000,,2013-04-30 07:42:00,
2013-04-30 02:52:00,56.0,41.0,-100.00,South,170,15.0,22.0,58,0.00,,,0.00,0.000000,,2013-04-30 07:52:00,
2013-04-30 03:22:00,53.0,42.0,-100.00,West,281,11.0,29.0,66,0.00,,,0.00,0.000000,,2013-04-30 08:22:00,
2013-04-30 03:32:00,53.0,42.0,-100.00,West,281,11.0,29.0,66,0.00,,,0.00,0.000000,,2013-04-30 08:32:00,
2013-04-30 03:42:00,53.0,42.0,-100.00,West,281,11.0,29.0,66,0.00,,,0.00,0.000000,,2013-04-30 08:42:00,
2013-04-30 03:52:00,53.0,42.0,-100.00,West,281,11.0,29.0,66,0.00,,,0.00,0.000000,,2013-04-30 08:52:00,
2013-04-30 04:22:00,45.0,44.0,-100.00,NNW,331,24.0,32.0,97,0.00,,,0.00,0.000000,,2013-04-30 09:22:00,
2013-04-30 04:33:00,45.0,44.0,-100.00,NNW,331,24.0,32.0,97,0.00,,,0.00,0.000000,,2013-04-30 09:33:00,
2013-04-30 04:43:00,45.0,44.0,-100.00,NNW,331,24.0,32.0,97,0.00,,,0.00,0.000000,,2013-04-30 09:43:00,
2013-04-30 04:52:00,45.0,44.0,-100.00,NNW,331,24.0,32.0,97,0.00,,,0.00,0.000000,,2013-04-30 09:52:00,
2013-04-30 05:22:00,45.0,45.0,-100.00,NW,320,22.0,35.0,100,0.00,,,0.00,0.000000,,2013-04-30 10:22:00,
2013-04-30 05:32:00,45.0,45.0,-100.00,NW,320,22.0,35.0,100,0.00,,,0.00,0.000000,,2013-04-30 10:32:00,
2013-04-30 05:41:00,45.0,45.0,-100.00,NW,320,22.0,35.0,100,0.00,,,0.00,0.000000,,2013-04-30 10:41:00,
2013-04-30 05:52:00,45.0,45.0,-100.00,NW,320,22.0,35.0,100,0.00,,,0.00,0.000000,,2013-04-30 10:52:00,
2013-04-30 06:21:00,44.0,44.0,-100.00,NW,309,18.0,28.0,100,0.00,,,0.00,0.000000,,2013-04-30 11:21:00,
2013-04-30 06:31:00,44.0,44.0,-100.00,NW,309,18.0,28.0,100,0.00,,,0.00,0.000000,,2013-04-30 11:31:00,
2013-04-30 06:42:00,44.0,44.0,-100.00,NW,309,18.0,28.0,100,0.00,,,0.00,0.000000,,2013-04-30 11:42:00,
2013-04-30 06:51:00,44.0,44.0,-100.00,NW,309,18.0,28.0,100,0.00,,,0.00,0.000000,,2013-04-30 11:51:00,
2013-04-30 07:21:00,43.0,43.0,-100.00,WNW,290,12.0,20.0,100,0.00,,,0.00,8.000000,,2013-04-30 12:21:00,
2013-04-30 07:31:00,43.0,43.0,-100.00,WNW,290,12.0,20.0,100,0.00,,,0.00,8.000000,,2013-04-30 12:31:00,
2013-04-30 07:41:00,43.0,43.0,-100.00,WNW,290,12.0,20.0,100,0.00,,,0.00,8.000000,,2013-04-30 12:41:00,
2013-04-30 07:51:00,43.0,43.0,-100.00,WNW,290,12.0,20.0,100,0.00,,,0.00,8.000000,,2013-04-30 12:51:00,
2013-04-30 10:21:00,52.0,33.0,-100.00,WNW,292,23.0,34.0,49,-99.99,,,0.00,31.000000,,2013-04-30 15:21:00,
2013-04-30 10:32:00,52.0,33.0,-100.00,WNW,292,23.0,34.0,49,-99.99,,,0.00,31.000000,,2013-04-30 15:32:00,
2013-04-30 10:42:00,52.0,33.0,-100.00,WNW,292,23.0,34.0,49,-99.99,,,0.00,31.000000,,2013-04-30 15:42:00,
2013-04-30 10:52:00,52.0,33.0,-100.00,WNW,292,23.0,34.0,49,-99.99,,,0.00,31.000000,,2013-04-30 15:52:00,
2013-04-30 11:23:00,52.0,28.0,-100.00,West,281,30.0,38.0,40,0.00,,,0.00,316.000000,,2013-04-30 16:23:00,
2013-04-30 11:33:00,52.0,28.0,-100.00,West,281,30.0,38.0,40,0.00,,,0.00,316.000000,,2013-04-30 16:33:00,
2013-04-30 11:42:00,52.0,28.0,-100.00,West,281,30.0,38.0,40,0.00,,,0.00,316.000000,,2013-04-30 16:42:00,
2013-04-30 11:52:00,52.0,28.0,-100.00,West,281,30.0,38.0,40,0.00,,,0.00,316.000000,,2013-04-30 16:52:00,
2013-04-30 12:22:00,51.0,29.0,-100.00,WNW,290,33.0,44.0,42,0.00,,,0.00,923.000000,,2013-04-30 17:22:00,
2013-04-30 12:32:00,51.0,29.0,-100.00,WNW,290,33.0,44.0,42,0.00,,,0.00,923.000000,,2013-04-30 17:32:00,
2013-04-30 12:42:00,51.0,29.0,-100.00,WNW,290,33.0,44.0,42,0.00,,,0.00,923.000000,,2013-04-30 17:42:00,
2013-04-30 12:52:00,51.0,29.0,-100.00,WNW,290,33.0,44.0,42,0.00,,,0.00,923.000000,,2013-04-30 17:52:00,
2013-04-30 13:22:00,53.0,32.0,-100.00,WNW,293,34.0,43.0,44,0.00,,,0.00,1040.000000,,2013-04-30 18:22:00,
2013-04-30 13:32:00,53.0,32.0,-100.00,WNW,293,34.0,43.0,44,0.00,,,0.00,1040.000000,,2013-04-30 18:32:00,
2013-04-30 13:42:00,53.0,32.0,-100.00,WNW,293,34.0,43.0,44,0.00,,,0.00,1040.000000,,2013-04-30 18:42:00,
2013-04-30 13:51:00,53.0,32.0,-100.00,WNW,293,34.0,43.0,44,0.00,,,0.00,1040.000000,,2013-04-30 18:51:00,
2013-04-30 14:22:00,54.0,33.0,-100.00,WNW,293,30.0,41.0,44,0.00,,,-99.99,1052.000000,,2013-04-30 19:22:00,
2013-04-30 14:32:00,54.0,33.0,-100.00,WNW,293,30.0,41.0,44,0.00,,,-99.99,1052.000000,,2013-04-30 19:32:00,
2013-04-30 14:42:00,54.0,33.0,-100.00,WNW,293,30.0,41.0,44,0.00,,,-99.99,1052.000000,,2013-04-30 19:42:00,
2013-04-30 14:52:00,54.0,33.0,-100.00,WNW,293,30.0,41.0,44,0.00,,,-99.99,1052.000000,,2013-04-30 19:52:00,
2013-04-30 15:21:00,55.0,31.0,-100.00,WNW,291,29.0,42.0,40,0.00,,,0.00,993.000000,,2013-04-30 20:21:00,
2013-04-30 15:32:00,55.0,31.0,-100.00,WNW,291,29.0,42.0,40,0.00,,,0.00,993.000000,,2013-04-30 20:32:00,
2013-04-30 15:42:00,55.0,31.0,-100.00,WNW,291,29.0,42.0,40,0.00,,,0.00,993.000000,,2013-04-30 20:42:00,
2013-04-30 15:52:00,55.0,31.0,-100.00,WNW,291,29.0,42.0,40,0.00,,,0.00,993.000000,,2013-04-30 20:52:00,
2013-04-30 16:22:00,54.0,28.0,-100.00,WNW,301,27.0,38.0,37,0.00,,,0.00,777.000000,,2013-04-30 21:22:00,
2013-04-30 16:32:00,54.0,28.0,-100.00,WNW,301,27.0,38.0,37,0.00,,,0.00,777.000000,,2013-04-30 21:32:00,
2013-04-30 16:42:00,54.0,28.0,-100.00,WNW,301,27.0,38.0,37,0.00,,,0.00,777.000000,,2013-04-30 21:42:00,
2013-04-30 16:52:00,54.0,28.0,-100.00,WNW,301,27.0,38.0,37,0.00,,,0.00,777.000000,,2013-04-30 21:52:00,
2013-04-30 17:23:00,52.0,28.0,-100.00,WNW,300,20.0,34.0,39,0.00,,,0.00,367.000000,,2013-04-30 22:23:00,
2013-04-30 17:32:00,52.0,28.0,-100.00,WNW,300,20.0,34.0,39,0.00,,,0.00,367.000000,,2013-04-30 22:32:00,
2013-04-30 17:41:00,52.0,28.0,-100.00,WNW,300,20.0,34.0,39,0.00,,,0.00,367.000000,,2013-04-30 22:41:00,
2013-04-30 17:52:00,52.0,28.0,-100.00,WNW,300,20.0,34.0,39,0.00,,,0.00,367.000000,,2013-04-30 22:52:00,
2013-04-30 18:22:00,50.0,27.0,-100.00,NW,304,21.0,28.0,41,0.00,,,0.00,217.000000,,2013-04-30 23:22:00,
2013-04-30 18:32:00,50.0,27.0,-100.00,NW,304,21.0,28.0,41,0.00,,,0.00,217.000000,,2013-04-30 23:32:00,
2013-04-30 18:42:00,50.0,27.0,-100.00,NW,304,21.0,28.0,41,0.00,,,0.00,217.000000,,2013-04-30 23:42:00,
2013-04-30 18:52:00,50.0,27.0,-100.00,NW,304,21.0,28.0,41,0.00,,,0.00,217.000000,,2013-04-30 23:52:00,
2013-04-30 19:22:00,49.0,29.0,-100.00,NW,306,20.0,29.0,45,0.00,,,0.00,155.000000,,2013-05-01 00:22:00,
2013-04-30 19:32:00,49.0,29.0,-100.00,NW,306,20.0,29.0,45,0.00,,,0.00,155.000000,,2013-05-01 00:32:00,
2013-04-30 19:42:00,49.0,29.0,-100.00,NW,306,20.0,29.0,45,0.00,,,0.00,155.000000,,2013-05-01 00:42:00,
2013-04-30 19:51:00,49.0,29.0,-100.00,NW,306,20.0,29.0,45,0.00,,,0.00,155.000000,,2013-05-01 00:51:00,
2013-04-30 20:21:00,47.0,28.0,-100.00,WNW,302,18.0,26.0,47,0.00,,,-99.99,111.000000,,2013-05-01 01:21:00,
2013-04-30 20:32:00,47.0,28.0,-100.00,WNW,302,18.0,26.0,47,0.00,,,-99.99,111.000000,,2013-05-01 01:32:00,
2013-04-30 20:42:00,47.0,28.0,-100.00,WNW,302,18.0,26.0,47,0.00,,,-99.99,111.000000,,2013-05-01 01:42:00,
2013-04-30 20:52:00,47.0,28.0,-100.00,WNW,302,18.0,26.0,47,0.00,,,-99.99,111.000000,,2013-05-01 01:52:00,
2013-04-30 21:21:00,43.0,29.0,-100.00,NW,325,16.0,23.0,58,0.00,,,0.00,7.000000,,2013-05-01 02:21:00,
2013-04-30 21:32:00,43.0,29.0,-100.00,NW,325,16.0,23.0,58,0.00,,,0.00,7.000000,,2013-05-01 02:32:00,
2013-04-30 21:42:00,43.0,29.0,-100.00,NW,325,16.0,23.0,58,0.00,,,0.00,7.000000,,2013-05-01 02:42:00,
2013-04-30 21:52:00,43.0,29.0,-100.00,NW,325,16.0,23.0,58,0.00,,,0.00,7.000000,,2013-05-01 02:52:00,
2013-04-30 22:21:00,37.0,27.0,-100.00,NNW,337,17.0,24.0,67,0.00,,,0.00,0.000000,,2013-05-01 03:21:00,
2013-04-30 22:33:00,37.0,27.0,-100.00,NNW,337,17.0,24.0,67,0.00,,,0.00,0.000000,,2013-05-01 03:33:00,
2013-04-30 22:43:00,37.0,27.0,-100.00,NNW,337,17.0,24.0,67,0.00,,,0.00,0.000000,,2013-05-01 03:43:00,
2013-04-30 22:53:00,37.0,27.0,-100.00,NNW,337,17.0,24.0,67,0.00,,,0.00,0.000000,,2013-05-01 03:53:00,
2013-04-30 23:22:00,35.0,27.0,-100.00,NNW,331,20.0,26.0,71,0.00,,,-99.99,0.000000,,2013-05-01 04:22:00,
2013-04-30 23:32:00,35.0,27.0,-100.00,NNW,331,20.0,26.0,71,0.00,,,-99.99,0.000000,,2013-05-01 04:32:00,
2013-04-30 23:43:00,35.0,27.0,-100.00,NNW,331,20.0,26.0,71,0.00,,,-99.99,0.000000,,2013-05-01 04:43:00,
2013-04-30 23:52:00,35.0,27.0,-100.00,NNW,331,20.0,26.0,71,0.00,,,-99.99,0.000000,,2013-05-01 04:52:00,